Weather reports worldwide

Advertisment
Parkalompolo, Sweden (2072): temperature & dewpoint: 14.10.2019 04:00:00 - 20.10.2019 04:00:00 (CEST)Parkalompolo, Sweden (2072): wind speed & gusts: 14.10.2019 04:00:00 - 20.10.2019 04:00:00 (CEST)Parkalompolo, Sweden (2072): wind direction: 14.10.2019 04:00:00 - 20.10.2019 04:00:00 (CEST)Parkalompolo, Sweden (2072): reduced air pressure: 14.10.2019 04:00:00 - 20.10.2019 04:00:00 (CEST)Parkalompolo, Sweden (2072): visibility: 14.10.2019 04:00:00 - 20.10.2019 04:00:00 (CEST)Parkalompolo, Sweden (2072): precipitation: 14.10.2019 04:00:00 - 20.10.2019 04:00:00 (CEST)
Date & Time tt [°C] td [°C] ff [km/h] ff [kn] fx [km/h] fx [kn] dd ppp [hPa] vv [km] rr [mm]
20.10.2019 04:00:00 - - - - - - - - - -
20.10.2019 03:00:00 -16,7 -19,9 0 0 3 2 N 1020,3 50 0,0
20.10.2019 02:00:00 -16,0 -19,4 0 0 7 4 N 1019,7 34 0,0
20.10.2019 01:00:00 -14,3 -17,9 0 0 7 4 N 1019,0 14 0,0
20.10.2019 00:00:00 -10,9 -13,4 2 1 8 5 NNW 1018,1 19 0,0
19.10.2019 23:00:00 -8,0 -10,5 6 4 16 9 NNW 1017,5 50 0,0
19.10.2019 22:00:00 -7,0 -9,6 8 4 13 7 N 1016,6 50 0,0
19.10.2019 21:00:00 -7,1 -9,5 6 3 16 8 N 1016,1 50 0,0
19.10.2019 20:00:00 -6,2 -8,6 8 5 16 8 N 1015,4 50 0,0
19.10.2019 19:00:00 -5,8 -8,2 9 5 17 9 N 1015,0 50 0,0
19.10.2019 18:00:00 -5,7 -8,1 8 4 14 7 N 1014,6 44 0,0
19.10.2019 17:00:00 -5,4 -7,7 7 4 12 6 N 1013,9 50 0,0
19.10.2019 16:00:00 -4,4 -6,8 8 4 17 9 N 1013,5 50 0,0
19.10.2019 15:00:00 -3,7 -5,2 7 4 14 8 N 1013,1 30 0,0
19.10.2019 14:00:00 -3,4 -4,8 8 5 14 8 N 1012,6 37 0,0
19.10.2019 13:00:00 -3,4 -4,7 6 3 11 6 N 1012,3 34 0,0
19.10.2019 12:00:00 -3,4 -4,5 4 2 9 5 N 1011,7 27 0,0
19.10.2019 11:00:00 -3,9 -4,9 5 3 10 5 N 1011,4 34 0,0
19.10.2019 10:00:00 -3,3 -4,1 5 3 12 7 N 1010,7 33 0,0
19.10.2019 09:00:00 -2,6 -3,3 6 4 14 8 N 1010,3 27 -
19.10.2019 08:00:00 -2,8 -3,5 4 2 10 5 N 1009,8 31 0,0
19.10.2019 07:00:00 -2,8 -3,3 4 2 10 5 N 1009,4 30 -
19.10.2019 06:00:00 -2,7 -3,2 5 3 11 6 N 1008,8 30 0,0
19.10.2019 05:00:00 -2,5 -3,0 3 2 8 5 N 1008,2 14 0,1
19.10.2019 04:00:00 -2,1 -2,7 3 2 7 4 N 1007,9 2,6 0,1
19.10.2019 03:00:00 -1,9 -2,3 3 2 6 3 N 1007,5 4,2 0,4
19.10.2019 02:00:00 -1,5 -1,9 3 2 7 4 N 1007,3 2,0 0,3
19.10.2019 01:00:00 -1,1 -1,5 3 2 6 3 N 1007,2 1,8 0,4
19.10.2019 00:00:00 -1,0 -1,3 3 1 4 2 NNW 1007,3 2,4 0,4
18.10.2019 23:00:00 -1,0 -1,3 0 0 3 1 N 1007,2 2,2 0,4
18.10.2019 22:00:00 -1,0 -1,3 0 0 2 1 N 1007,1 2,0 0,3
18.10.2019 21:00:00 -0,9 -1,2 0 0 1 1 N 1007,0 1,9 0,3
18.10.2019 20:00:00 -0,9 -1,3 0 0 1 1 N 1007,3 3,0 0,2
18.10.2019 19:00:00 -0,6 -1,0 0 0 3 1 N 1007,2 2,6 0,3
18.10.2019 18:00:00 -0,5 -0,9 0 0 4 2 N 1007,1 2,6 0,3
18.10.2019 17:00:00 -0,4 -0,8 0 0 5 3 N 1007,2 2,5 0,6
18.10.2019 16:00:00 -0,2 -0,6 4 2 9 5 S 1007,3 2,0 0,3
18.10.2019 15:00:00 -0,1 -0,5 5 3 10 5 S 1007,4 2,0 0,3
18.10.2019 14:00:00 -0,2 -0,6 5 3 12 6 S 1007,7 2,2 0,2
18.10.2019 13:00:00 -0,2 -0,6 5 3 12 7 S 1007,8 7 0,2
18.10.2019 12:00:00 -0,5 -0,9 6 3 12 7 S 1007,9 1,6 0,8
18.10.2019 11:00:00 -0,8 -2,1 7 4 14 8 S 1008,3 1,5 0,5
18.10.2019 10:00:00 -1,2 -2,9 6 4 14 8 S 1008,5 2,1 0,3
18.10.2019 09:00:00 -1,6 -3,2 8 4 15 8 S 1008,5 1,6 0,6
18.10.2019 08:00:00 -1,8 -3,4 7 4 17 9 S 1008,5 1,5 0,4
18.10.2019 07:00:00 -2,0 -3,4 7 4 17 9 S 1008,7 1,4 0,7
18.10.2019 06:00:00 -2,0 -3,6 6 4 16 9 S 1009,2 1,9 0,3
18.10.2019 05:00:00 -2,2 -3,9 6 4 13 7 S 1009,6 2,9 0,3
18.10.2019 04:00:00 -2,5 -4,5 5 3 14 7 SSE 1010,4 2,8 0,1
18.10.2019 03:00:00 -2,6 -4,5 6 3 10 6 S 1011,1 2,1 0,3
18.10.2019 02:00:00 -2,6 -4,5 5 3 11 6 SSE 1011,7 1,5 0,4
18.10.2019 01:00:00 -2,7 -4,4 5 3 11 6 S 1012,6 50 0,0
18.10.2019 00:00:00 -2,8 -4,5 5 3 12 7 S 1013,2 50 0,0
17.10.2019 23:00:00 -3,0 -4,7 4 2 10 6 S 1013,8 50 0,0
17.10.2019 22:00:00 -3,1 -5,0 4 2 11 6 S 1014,5 50 0,0
17.10.2019 21:00:00 -3,3 -5,2 5 3 10 5 S 1014,8 50 0,0
17.10.2019 20:00:00 -3,9 -5,9 2 1 7 4 SSW 1015,4 50 0,0
17.10.2019 19:00:00 -4,2 -6,2 3 2 8 5 S 1015,7 50 0,0
17.10.2019 18:00:00 -4,3 -6,1 5 3 10 5 SSE 1016,1 34 0,0
17.10.2019 17:00:00 -4,3 -6,3 3 2 9 5 S 1016,6 14 -
17.10.2019 16:00:00 -4,4 -6,4 4 2 9 5 S 1017,0 21 0,0
17.10.2019 15:00:00 -4,9 -7,0 2 1 7 4 SE 1017,4 3,5 0,0
17.10.2019 14:00:00 -5,4 -7,2 4 2 9 5 S 1018,2 - 0,0
17.10.2019 13:00:00 -5,9 -7,7 5 3 10 5 S 1018,6 3,4 0,0
17.10.2019 12:00:00 -6,3 -8,1 3 2 11 6 S 1019,1 3,2 0,0
17.10.2019 11:00:00 -7,1 -8,7 6 3 12 7 S 1019,3 4,2 0,0
17.10.2019 10:00:00 -6,9 -8,8 0 0 6 3 N 1019,5 2,2 0,0
17.10.2019 09:00:00 -7,5 -9,7 2 1 5 3 SE 1019,7 1,3 0,0
17.10.2019 08:00:00 -8,3 -10,8 0 0 3 1 N 1019,7 1,1 0,0
17.10.2019 07:00:00 -9,3 -12,1 0 0 4 2 N 1020,2 - 0,0
17.10.2019 06:00:00 -9,0 -11,5 0 0 4 2 N 1020,0 1,7 0,0
17.10.2019 05:00:00 -7,8 -10,5 0 0 4 2 N 1019,6 - 0,0
17.10.2019 04:00:00 -7,9 -10,1 0 0 3 2 N 1020,0 - 0,0
17.10.2019 03:00:00 -7,8 -10,5 0 0 5 3 N 1020,2 1,1 0,0
17.10.2019 02:00:00 -7,8 -10,2 2 1 5 3 E 1020,2 - 0,0
17.10.2019 01:00:00 -7,1 -9,0 0 0 4 2 N 1020,5 - 0,0
17.10.2019 00:00:00 -6,6 -8,7 0 0 5 3 N 1020,4 - 0,0
16.10.2019 23:00:00 -6,2 -8,3 0 0 5 3 N 1020,4 - 0,0
16.10.2019 22:00:00 -6,2 -8,5 0 0 5 3 N 1020,3 - 0,0
16.10.2019 21:00:00 -6,0 -8,1 0 0 6 4 N 1020,2 - 0,0
16.10.2019 20:00:00 -6,0 -8,1 2 1 7 4 ESE 1020,1 - 0,0
16.10.2019 19:00:00 -5,5 -7,6 0 0 5 3 N 1020,0 - 0,0
16.10.2019 18:00:00 -5,1 -7,2 2 1 6 4 ENE 1019,9 1,0 0,0
16.10.2019 17:00:00 -4,8 -6,9 0 0 5 3 N 1019,7 1,2 0,0
16.10.2019 16:00:00 -4,6 -6,4 3 1 8 5 SSW 1019,8 2,6 0,0
16.10.2019 15:00:00 -4,5 -6,5 0 0 6 4 N 1019,9 3,4 0,0
16.10.2019 14:00:00 -4,5 -6,6 3 2 6 4 NNE 1020,1 20 0,0
16.10.2019 13:00:00 -4,3 -6,4 0 0 5 3 N 1020,0 - 0,0
16.10.2019 12:00:00 -4,6 -6,7 2 1 4 2 ESE 1020,1 - 0,0
16.10.2019 11:00:00 -4,8 -7,4 0 0 4 2 N 1020,1 - 0,0
16.10.2019 10:00:00 -5,9 -7,9 0 0 3 2 N 1020,1 - 0,1
16.10.2019 09:00:00 -6,9 -9,9 0 0 2 1 N 1019,8 - 0,0
16.10.2019 08:00:00 -7,8 -10,5 0 0 4 2 N 1019,7 - 0,0
16.10.2019 07:00:00 -8,6 -10,7 3 2 5 3 NW 1019,6 - 0,0
16.10.2019 06:00:00 -8,8 -11,0 0 0 2 1 N 1019,5 - 0,0
16.10.2019 05:00:00 -8,5 -10,9 0 0 4 2 N 1019,4 - 0,0
16.10.2019 04:00:00 -7,6 -9,8 0 0 3 2 N 1019,3 - 0,0
16.10.2019 03:00:00 -6,7 -8,8 0 0 4 2 N 1019,0 - 0,0
16.10.2019 02:00:00 -5,7 -8,1 0 0 4 2 N 1019,0 - 0,0
16.10.2019 01:00:00 -4,4 -6,1 2 1 6 3 NNW 1018,7 - 0,0
16.10.2019 00:00:00 -4,5 -7,3 0 0 5 3 N 1018,6 - 0,0
15.10.2019 23:00:00 -4,5 -7,3 0 0 3 2 N 1018,5 0,1 0,0
15.10.2019 22:00:00 -3,9 -7,3 0 0 5 3 N 1018,3 0,1 0,0
15.10.2019 21:00:00 -3,2 -6,7 3 1 5 3 SE 1018,0 0,1 0,1
15.10.2019 20:00:00 -3,1 -7,4 0 0 4 2 N 1018,0 0,1 0,0
15.10.2019 19:00:00 -3,2 -5,8 0 0 5 3 N 1017,7 0,1 0,0
15.10.2019 18:00:00 -3,0 -5,8 2 1 5 3 SE 1017,8 0,1 0,0
15.10.2019 17:00:00 -2,8 -5,9 3 2 6 3 SSE 1017,7 0,1 0,0
15.10.2019 16:00:00 -1,8 -5,8 4 2 9 5 S 1017,7 0,1 0,0
15.10.2019 15:00:00 -0,9 -5,7 4 2 8 5 SSE 1017,6 0,1 0,0
15.10.2019 14:00:00 -1,6 -5,6 4 2 9 5 S 1017,5 0,1 0,0
15.10.2019 13:00:00 -2,0 -6,4 4 2 6 4 SSW 1017,5 0,1 0,0
15.10.2019 12:00:00 -3,8 -6,9 4 2 6 4 SSW 1017,7 0,1 0,0
15.10.2019 11:00:00 -4,9 -8,3 0 0 5 3 N 1017,6 - 0,0
15.10.2019 10:00:00 -7,4 -9,8 3 2 6 3 S 1017,5 - 0,0
15.10.2019 09:00:00 -8,7 -11,4 0 0 4 2 N 1017,0 - 0,0
15.10.2019 08:00:00 -10,0 -12,8 0 0 5 3 N 1016,5 - 0,0
15.10.2019 07:00:00 -10,4 -13,3 2 1 6 4 SSW 1016,2 0,1 0,0
15.10.2019 06:00:00 -10,0 -13,1 0 0 5 3 N 1015,8 0,1 0,0
15.10.2019 05:00:00 -8,9 -11,9 2 1 4 2 SSW 1015,5 0,1 0,0
15.10.2019 04:00:00 -7,1 -9,6 0 0 10 5 N 1015,1 - 0,0
15.10.2019 03:00:00 -6,0 -8,0 5 3 9 5 W 1014,7 - 0,0
15.10.2019 02:00:00 -6,8 -9,4 0 0 8 4 N 1014,2 0,1 0,0
15.10.2019 01:00:00 -3,8 -6,7 5 3 12 7 WNW 1013,5 0,1 0,0
15.10.2019 00:00:00 -4,1 -6,6 6 3 12 7 W 1013,3 0,1 0,0
14.10.2019 23:00:00 -3,8 -6,6 3 2 10 5 W 1012,8 0,1 0,0
14.10.2019 22:00:00 -3,6 -6,7 3 2 10 6 WNW 1012,5 0,1 0,0
14.10.2019 21:00:00 -2,2 -5,7 6 3 13 7 WNW 1012,2 0,1 0,0
14.10.2019 20:00:00 -2,1 -5,8 6 3 14 7 NW 1011,7 0,1 0,0
14.10.2019 19:00:00 -2,2 -6,6 6 3 13 7 WNW 1011,4 0,1 0,0
14.10.2019 18:00:00 -1,6 -5,8 6 3 14 8 NW 1011,0 0,1 0,0
14.10.2019 17:00:00 -0,5 -5,3 6 4 16 8 NW 1010,6 0,1 0,0
14.10.2019 16:00:00 0,1 -4,7 6 3 18 10 NW 1010,3 0,1 0,0
14.10.2019 15:00:00 0,0 -4,3 8 4 19 11 N 1009,8 0,1 0,0
14.10.2019 14:00:00 0,1 -4,2 9 5 21 11 NNW 1009,6 0,1 0,0
14.10.2019 13:00:00 - - - - - - - - - -
14.10.2019 12:00:00 0,1 -4,0 9 5 19 10 N 1009,3 50 0,0
14.10.2019 11:00:00 -0,2 -4,5 11 6 20 11 N 1009,0 38 0,0
14.10.2019 10:00:00 -0,7 -4,8 10 5 19 10 NNW 1009,0 38 0,0
14.10.2019 09:00:00 -1,2 -5,2 7 4 16 9 NNW 1008,7 50 0,0
14.10.2019 08:00:00 -1,5 -5,5 8 4 14 7 NW 1008,5 50 -
14.10.2019 07:00:00 -1,8 -5,8 5 3 14 7 NNW 1008,3 29 0,0
14.10.2019 06:00:00 -1,7 -5,5 8 4 21 11 N 1008,1 50 0,0
14.10.2019 05:00:00 -1,7 -5,5 8 4 18 10 N 1008,0 50 0,0
14.10.2019 04:00:00 -1,9 -5,1 8 5 15 8 N 1007,9 31 0,0

tt = temperature
td = dewpoint
ff = wind speed
fx = gusts
dd = wind direction
ppp = reduced air pressure
vv = visibility
rr = precipitation

Next stations